Location: *
(55.5817°S, 142.4781°W)
Time: 07:14:50
(UTC+00:00)

Aureole 3 Rocket - Pass Details

Date: 29 April 2025
Orbit: 397 x 1697 km, 82.5° (Epoch: 23 May)

Event Time Altitude Azimuth Distance (km) Brightness Sun altitude
Rises 14:56:35 0° 4° (N) 2,376 6.2 -16.4°
Reaches altitude 10° 14:58:38 10° 11° (N) 1,483 5.2 -16.1°
Maximum altitude 15:01:36 44° 84° (E) 585 3.5 -15.7°
Drops below altitude 10° 15:04:45 10° 158° (SSE) 1,571 5.4 -15.2°
Sets 15:06:59 0° 164° (SSE) 2,541 6.4 -14.9°
